Glencoe, MN

7:00 AM CST on November 21, 2017 (GMT -0600)
Glencoe Municipal

Weather History for KGYL - March, 2013

Change the Weather History Date:

Saturday, March 9, 2013

  Actual Average (KHCD) Record (KHCD)
Temperature  
Mean Temperature 34 °F -  
Max Temperature 36 °F 37 °F 56 °F (2015)
Min Temperature 32 °F 18 °F -13 °F (1984)
Degree Days  
Heating Degree Days 31    
Moisture  
Dew Point 34 °F    
Average Humidity 98    
Maximum Humidity 99    
Minimum Humidity 87    
Precipitation  
Precipitation 0.46 in - - ()
Sea Level Pressure  
Sea Level Pressure 29.80 in    
Wind  
Wind Speed 8 mph (SE)    
Max Wind Speed 14 mph    
Max Gust Speed 17 mph    
Visibility 3 miles    
Events Fog , Rain    
Averages and records for this station are not official NWS values.
T = Trace of Precipitation, MM = Missing Value Source: NWS Daily Summary

Daily Weather History Graph

Daily Weather History Graph

Search for Another Location

Airport or City:

Trip Planner

Search our weather history database for the weather conditions in past years. The results will help you decide how hot, cold, wet, or windy it might be!

Date:

Astronomy

Mar. 09, 2013 Rise Set
Actual Time 6:39 AM CST 6:14 PM CST
Civil Twilight 6:10 AM CST 6:44 PM CST
Nautical Twilight 5:36 AM CST 7:18 PM CST
Astronomical Twilight 5:02 AM CST 7:52 PM CST
Moon 5:08 AM CST (3/9) 4:14 PM CST (3/9)
Length of Visible Light 12h 34m
Length of Day
11h 35m
Waning Crescent, 5% of the Moon is Illuminated
Mar 9
Waning Crescent
Mar 11
New
Mar 19
First Quarter
Mar 27
Full
Apr 2
Last Quarter

Hourly Weather History & Observations

Time (CST) Temp. Windchill Dew Point Humidity Pressure Visibility Wind Dir Wind Speed Gust Speed Precip Events Conditions
12:14 AM 33.8 °F 26.4 °F 30.2 °F 87% 30.04 in 7.0 mi SE 9.2 mph - N/A   Light Drizzle
12:34 AM 33.8 °F 26.4 °F 30.6 °F 88% 30.03 in 4.0 mi SE 9.2 mph - 0.01 in   Drizzle
12:54 AM 33.1 °F 24.9 °F 31.1 °F 92% 30.02 in 3.0 mi ESE 10.4 mph - 0.05 in Rain Light Rain
1:14 AM 32.9 °F 24.7 °F 31.3 °F 94% 30.01 in 3.0 mi ESE 10.4 mph - 0.02 in Rain Light Rain
1:34 AM 32.4 °F 23.0 °F 32.0 °F 99% 30.00 in 2.5 mi ESE 12.7 mph - 0.07 in Rain Light Rain
1:54 AM 32.5 °F 23.2 °F 32.0 °F 98% 29.99 in 2.5 mi ESE 12.7 mph - 0.10 in Rain Light Rain
2:14 AM 32.9 °F 23.7 °F 32.4 °F 98% 29.98 in 2.5 mi ESE 12.7 mph 17.3 mph 0.02 in Rain Rain
2:34 AM 33.1 °F 24.4 °F 32.5 °F 98% 29.96 in 2.0 mi ESE 11.5 mph - 0.07 in Rain Light Rain
2:54 AM 33.1 °F 23.4 °F 32.5 °F 98% 29.95 in 2.0 mi ESE 13.8 mph - 0.12 in Rain Rain
3:14 AM 33.1 °F 23.9 °F 32.5 °F 98% 29.93 in 2.0 mi ESE 12.7 mph - 0.03 in Rain Light Rain
3:34 AM 33.3 °F 24.6 °F 32.9 °F 99% 29.92 in 2.5 mi ESE 11.5 mph - 0.05 in Rain Light Rain
3:54 AM 33.4 °F 25.9 °F 32.9 °F 98% 29.92 in 3.0 mi SE 9.2 mph - 0.07 in Rain Rain
4:14 AM 33.8 °F 25.8 °F 33.1 °F 97% 29.92 in 3.0 mi SE 10.4 mph - N/A   Drizzle
4:34 AM 33.8 °F 27.0 °F 33.1 °F 97% 29.91 in 4.0 mi SE 8.1 mph - N/A   Light Drizzle
4:54 AM 33.8 °F 26.4 °F 33.1 °F 97% 29.90 in 4.0 mi SE 9.2 mph - N/A   Drizzle
5:13 AM 33.8 °F 27.0 °F 33.1 °F 97% 29.90 in 3.0 mi SE 8.1 mph - 0.01 in   Drizzle
5:34 AM 33.8 °F 27.7 °F 33.1 °F 97% 29.90 in 3.0 mi SE 6.9 mph - 0.01 in   Light Drizzle
5:54 AM 33.8 °F 27.0 °F 33.1 °F 97% 29.90 in 3.0 mi SE 8.1 mph - 0.01 in   Light Drizzle
6:14 AM 34.0 °F 26.6 °F 33.4 °F 98% 29.87 in 3.0 mi SE 9.2 mph - N/A   Overcast
6:34 AM 34.0 °F 28.0 °F 33.4 °F 98% 29.87 in 3.0 mi SE 6.9 mph - N/A   Overcast
6:54 AM 34.0 °F 27.2 °F 33.4 °F 98% 29.86 in 2.5 mi SE 8.1 mph - N/A   Overcast
7:14 AM 34.2 °F 26.2 °F 33.8 °F 99% 29.85 in 2.0 mi SE 10.4 mph - N/A   Overcast
7:34 AM 34.2 °F 26.8 °F 33.8 °F 99% 29.84 in 2.0 mi SE 9.2 mph - N/A   Overcast
7:54 AM 34.2 °F 27.5 °F 33.8 °F 99% 29.83 in 2.5 mi SE 8.1 mph - N/A   Overcast
8:14 AM 34.2 °F 27.5 °F 33.8 °F 99% 29.83 in 3.0 mi SE 8.1 mph - N/A   Overcast
8:34 AM 34.3 °F 27.0 °F 33.8 °F 98% 29.82 in 4.0 mi SE 9.2 mph - N/A   Overcast
8:54 AM 34.5 °F 28.6 °F 34.0 °F 98% 29.81 in 4.0 mi SE 6.9 mph - N/A   Overcast
9:14 AM 34.7 °F 27.5 °F 34.0 °F 97% 29.80 in 4.0 mi SE 9.2 mph - N/A   Overcast
9:34 AM 34.2 °F 28.2 °F 33.8 °F 99% 29.80 in 4.0 mi SE 6.9 mph - N/A   Overcast
9:54 AM 34.3 °F 27.7 °F 33.8 °F 98% 29.80 in 3.0 mi SE 8.1 mph - N/A   Overcast
10:14 AM 34.5 °F 28.6 °F 34.0 °F 98% 29.79 in 1.2 mi SE 6.9 mph - N/A   Overcast
10:34 AM 34.7 °F 28.8 °F 34.2 °F 98% 29.78 in 1.0 mi ESE 6.9 mph - N/A   Drizzle
10:54 AM 35.2 °F 29.5 °F 34.7 °F 98% 29.78 in 1.0 mi SE 6.9 mph - 0.01 in   Drizzle
11:14 AM 35.1 °F 27.4 °F 34.7 °F 99% 29.75 in 1.0 mi ESE 10.4 mph - N/A   Drizzle
11:34 AM 35.2 °F 28.8 °F 34.7 °F 98% 29.75 in 1.5 mi ESE 8.1 mph - N/A   Light Drizzle
11:54 AM 35.2 °F 29.5 °F 34.7 °F 98% 29.75 in 3.0 mi SE 6.9 mph - 0.01 in Rain Light Rain
12:14 PM 35.2 °F 29.5 °F 34.7 °F 98% 29.75 in 2.0 mi SE 6.9 mph - 0.02 in Rain Rain
12:33 PM 35.6 °F 29.9 °F 34.9 °F 97% 29.74 in 3.0 mi SE 6.9 mph - 0.04 in Rain Rain
12:54 PM 35.6 °F 30.7 °F 34.9 °F 97% 29.74 in 4.0 mi SE 5.8 mph - 0.04 in   Drizzle
1:14 PM 36.0 °F 29.6 °F 35.6 °F 99% 29.72 in 4.0 mi ESE 8.1 mph - N/A Rain Rain
1:33 PM 35.8 °F 30.9 °F 35.6 °F 99% 29.70 in 4.0 mi ESE 5.8 mph - 0.01 in   Drizzle
1:54 PM 35.6 °F 30.7 °F 35.2 °F 99% 29.69 in 5.0 mi ESE 5.8 mph - 0.01 in   Drizzle
2:14 PM 35.6 °F 30.7 °F 34.9 °F 97% 29.69 in 4.0 mi SE 5.8 mph - 0.01 in Rain Rain
2:34 PM 35.6 °F 29.9 °F 35.2 °F 99% 29.68 in 5.0 mi SE 6.9 mph - 0.01 in   Light Drizzle
2:54 PM 35.2 °F 30.3 °F 34.9 °F 99% 29.69 in 2.5 mi SE 5.8 mph - 0.01 in   Drizzle
3:14 PM 35.2 °F 30.3 °F 34.7 °F 98% 29.68 in 3.0 mi ESE 5.8 mph - 0.01 in   Drizzle
3:34 PM 35.1 °F 30.1 °F 34.7 °F 99% 29.67 in 2.5 mi East 5.8 mph - 0.01 in Rain Light Rain
3:54 PM 35.2 °F 30.3 °F 34.7 °F 98% 29.68 in 4.0 mi SE 5.8 mph - 0.02 in   Drizzle
4:14 PM 35.1 °F 32.2 °F 34.7 °F 99% 29.67 in 5.0 mi ESE 3.5 mph - N/A   Overcast
4:34 PM 34.9 °F 29.9 °F 34.7 °F 99% 29.68 in 5.0 mi SE 5.8 mph - N/A   Overcast
4:54 PM 34.7 °F 31.8 °F 34.3 °F 99% 29.68 in 3.0 mi SE 3.5 mph - N/A   Overcast
5:14 PM 34.7 °F 31.8 °F 34.5 °F 99% 29.68 in 1.2 mi SSE 3.5 mph - N/A   Light Drizzle
5:34 PM 34.7 °F 31.8 °F 34.5 °F 99% 29.68 in 0.8 mi SSE 3.5 mph - N/A   Drizzle
5:54 PM 34.7 °F 31.8 °F 34.3 °F 99% 29.68 in 0.8 mi SSE 3.5 mph - 0.01 in   Light Drizzle
6:14 PM 34.2 °F - 33.8 °F 99% 29.69 in 0.5 mi Calm Calm - N/A Rain Light Rain
6:34 PM 34.5 °F - 34.0 °F 98% 29.69 in 0.8 mi Calm Calm - N/A Rain Light Rain
6:54 PM 34.0 °F - 33.8 °F 99% 29.70 in 0.5 mi Calm Calm - N/A Fog Fog
7:14 PM 33.4 °F - 33.1 °F 99% 29.70 in 0.5 mi Calm Calm - N/A Fog Fog
7:34 PM 33.6 °F 30.6 °F 33.3 °F 99% 29.72 in 0.5 mi NW 3.5 mph - N/A Fog Fog
7:54 PM 33.8 °F - 33.3 °F 98% 29.72 in 0.5 mi Calm Calm - N/A Fog Fog
8:14 PM 33.8 °F - 33.3 °F 98% 29.72 in 0.5 mi Calm Calm - N/A Fog Fog
8:34 PM 33.4 °F 29.1 °F 33.1 °F 99% 29.72 in 0.5 mi NNW 4.6 mph - N/A Fog Fog
8:54 PM 33.6 °F 29.4 °F 33.3 °F 99% 29.73 in 0.5 mi NNW 4.6 mph - N/A   Light Drizzle
9:14 PM 33.8 °F 30.8 °F 33.3 °F 98% 29.74 in 0.5 mi NW 3.5 mph - N/A   Drizzle
9:34 PM 33.4 °F 29.1 °F 33.1 °F 99% 29.75 in 0.8 mi NW 4.6 mph - N/A   Overcast
9:54 PM 33.8 °F 29.6 °F 33.3 °F 98% 29.77 in 0.8 mi WNW 4.6 mph - N/A   Overcast
10:14 PM 33.8 °F 28.6 °F 33.3 °F 98% 29.77 in 0.5 mi WNW 5.8 mph - N/A Fog Fog
10:34 PM 33.8 °F 27.0 °F 33.3 °F 98% 29.78 in 2.5 mi NW 8.1 mph - N/A   Light Drizzle
10:54 PM 33.4 °F 24.8 °F 33.1 °F 99% 29.78 in 4.0 mi NW 11.5 mph - N/A Rain Light Rain
11:14 PM 33.3 °F 24.1 °F 32.9 °F 99% 29.78 in 5.0 mi NW 12.7 mph - N/A   Light Drizzle
11:34 PM 33.1 °F 25.5 °F 32.7 °F 99% 29.79 in 7.0 mi NNW 9.2 mph - N/A Rain Light Rain
11:54 PM 32.9 °F 24.1 °F 32.5 °F 99% 29.80 in 7.0 mi NNW 11.5 mph - N/A Rain Rain